Location: The Saddle
(36.8333°N, 80.3417°W)
Time: 06:51:16
(UTC-04:00)

Vanguard 2 Rocket - Visible Passes

Search period start: 24 September 2023 00:00
Search period end: 04 October 2023 00:00
Orbit: 553 x 3312 km, 32.9° (Epoch: 23 September)

Date Brightness Start Highest point End Pass type
(mag) Time Alt. Az. Time Alt. Az. Time Alt. Az.
24 Sep 9.9 20:38:56 10° W 20:47:25 19° SW 20:53:41 10° S visible
25 Sep 9.8 19:32:44 10° W 19:46:00 31° SW 19:54:46 10° SSE visible
26 Sep 10.3 20:52:03 10° WSW 20:56:21 12° SW 21:00:03 10° SW visible
27 Sep 10.1 19:43:40 10° W 19:54:59 23° SW 20:03:10 10° S visible
29 Sep 10.5 19:55:52 10° W 20:03:49 16° SW 20:10:18 10° SSW visible
